Temperature
23 21 20 21 21 22 22 22 21 21 20 20 19 18 17 17 17 17 16 17 17 17 17 17 17 17 17 17 17 18 18 18 17 17 17 17 16 16 16 15 15 15 14 14
21 21 22 23 22 22 22 21 21 20 20 20 18 18 17 17 16 17 17 17 17 17 17 17 17 17 17 17 18 18 18 18 18 17 17 17 16 16 16 15 15 15 14 14
23 23 24 24 23 23 22 21 21 21 20 18 19 18 18 17 17 17 17 17 17 18 18 17 17 17 17 17 18 18 18 18 18 17 17 17 16 16 16 15 15 15 14 14
22 23 24 24 24 23 22 22 22 20 19 17 18 18 18 17 17 17 17 17 17 18 18 18 18 18 18 18 18 18 18 18 18 17 17 17 17 16 16 15 15 14 14 14
23 24 25 24 24 23 22 20 19 19 18 17 17 17 17 17 17 17 17 17 18 18 18 18 18 18 18 18 18 18 18 18 18 18 17 17 17 16 16 15 15 15 14 14
23 24 24 24 23 22 20 19 18 16 16 18 18 17 18 17 17 18 17 18 18 18 19 19 18 18 18 18 18 18 18 18 18 18 17 17 17 16 16 16 15 15 14 14
23 24 24 23 22 21 20 19 18 19 17 18 17 17 17 18 18 18 18 18 19 19 19 19 19 19 19 19 19 19 18 18 18 18 18 17 17 16 16 16 15 15 15 15
22 22 24 24 23 21 20 20 19 20 19 18 17 18 18 19 20 20 20 20 19 19 20 20 20 20 20 19 19 19 19 19 19 18 18 17 17 16 16 16 16 15 15 15
21 22 24 24 23 22 20 19 18 17 18 18 18 18 19 20 19 19 19 19 20 20 20 20 20 20 20 20 20 20 20 19 19 19 18 18 17 17 16 16 16 16 16 15
21 22 23 23 23 22 21 18 16 17 18 19 19 19 19 20 20 19 18 19 20 21 21 21 21 21 21 21 21 20 20 20 20 19 19 18 17 17 17 16 16 16 16 16
21 21 22 22 23 23 21 19 16 15 16 18 19 19 19 19 19 19 19 21 22 22 22 22 22 22 22 21 21 21 21 20 20 19 19 18 18 17 17 17 17 17 16 16
20 19 20 21 21 21 22 20 17 19 18 16 17 18 19 18 18 19 20 21 22 23 23 23 23 22 22 22 22 21 21 21 20 20 20 19 18 18 18 18 17 17 17 17
19 19 20 21 20 21 21 20 17 15 15 15 17 19 19 17 18 19 20 21 22 23 23 23 23 23 22 22 22 22 22 21 21 21 20 19 19 19 18 18 18 18 17 17
19 18 19 21 20 21 21 21 18 17 16 16 17 18 18 17 17 17 19 20 22 22 22 23 23 23 23 23 23 22 22 22 21 21 20 20 20 19 19 19 18 18 18 17
19 20 20 20 20 21 21 21 19 18 17 17 18 18 17 16 16 16 17 19 20 21 22 22 23 23 23 23 23 23 22 22 22 21 21 20 20 20 19 19 18 18 18 18
18 20 20 21 21 21 21 20 20 19 18 18 18 18 17 15 15 15 16 17 18 19 21 21 22 22 23 23 23 23 22 22 22 21 21 20 20 20 19 19 18 18 18 18
17 18 19 19 20 21 20 20 19 18 18 18 18 17 16 15 14 14 14 15 16 17 19 20 21 21 22 22 22 22 22 22 21 21 21 20 20 19 19 19 18 18 18 18
16 16 16 17 20 20 19 18 18 18 17 16 16 16 15 14 14 14 14 15 16 17 18 19 20 20 20 21 21 21 21 20 20 20 19 19 19 19 18 18 18 18 17 17
15 15 15 16 18 19 18 18 17 17 17 16 16 15 15 15 15 14 14 15 16 17 17 18 18 19 19 19 19 19 19 19 19 18 18 18 18 18 17 17 17 17 17 16
14 14 15 15 18 18 18 18 18 18 17 17 16 15 15 16 15 13 14 15 16 16 17 17 17 18 18 18 18 18 18 17 17 17 16 16 16 16 16 16 16 16 15 15
16 15 15 16 17 17 17 17 17 17 17 17 16 16 16 14 14 14 14 15 16 16 16 16 17 17 16 16 16 16 16 15 15 15 15 15 15 15 15 15 14 14 14 14
16 15 15 14 16 17 16 17 16 16 16 16 16 16 15 14 14 14 14 15 15 15 15 15 15 15 15 15 15 15 14 14 14 14 14 14 13 13 13 13 13 13 12 12
14 15 14 14 15 15 15 15 16 16 16 16 16 15 15 14 14 14 14 14 15 15 14 14 14 14 14 14 13 13 13 13 13 13 13 12 12 12 12 12 12 12 11 11
14 13 13 14 14 14 15 15 16 16 16 16 15 15 15 14 14 14 14 14 14 14 13 13 13 13 13 12 12 12 12 11 12 12 11 11 11 11 11 11 10 10 10 10
15 13 13 14 13 13 14 15 15 16 16 15 15 15 15 15 14 14 14 13 13 13 12 12 12 12 11 11 11 11 11 11 11 10 10 10 10 10 10 10 9 9 9 9
12 13 13 14 14 13 13 14 15 15 15 15 14 14 14 14 14 13 13 13 12 12 12 11 11 11 11 10 10 10 10 10 10 10 10 9 9 9 9 9 9 9 9 8
Wind_Speed
1 2 5 8 9 8 5 4 6 3 0 2 2 2 2 3 3 4 4 5 6 6 5 6 7 7 7 6 7 8 8 7 7 4 4 4 3 2 1 2 3 4 4 5
3 5 9 5 4 5 5 4 4 1 2 2 1 2 2 3 4 5 6 7 7 6 6 7 7 7 8 8 8 8 8 8 7 5 4 3 3 2 2 1 2 3 4 4
7 8 4 3 2 1 3 5 4 2 2 4 3 4 1 2 2 3 5 5 6 8 9 10 9 9 9 9 9 9 9 8 7 6 4 4 4 3 2 1 1 3 4 4
8 7 3 3 4 3 4 3 3 4 4 3 3 3 4 2 3 4 6 6 7 7 7 8 9 10 11 10 9 8 8 7 6 7 6 6 5 4 4 3 3 2 4 4
7 3 3 5 5 4 2 5 6 5 4 3 4 1 6 1 4 7 8 9 8 8 9 10 11 11 10 10 9 8 7 7 6 7 7 6 4 3 2 2 2 2 2 3
8 4 4 3 2 4 7 6 7 6 5 3 2 1 6 4 6 6 8 9 9 9 9 9 9 9 8 8 8 8 8 7 7 7 7 7 7 6 5 4 4 3 2 2
6 4 2 4 4 3 5 6 5 6 5 4 2 2 8 7 6 8 10 11 10 10 10 10 9 10 10 10 10 9 9 9 8 8 8 8 8 8 8 6 6 5 3 3
3 7 3 3 5 6 4 7 6 4 4 5 3 4 7 5 4 5 7 8 9 10 10 11 12 11 11 11 11 10 10 10 9 9 9 8 8 6 6 7 6 6 5 5
7 7 2 1 3 8 6 3 5 6 2 2 5 7 8 2 2 5 7 8 10 11 12 12 12 11 11 12 12 12 11 10 10 10 9 8 8 8 8 7 6 5 5 4
8 5 4 2 4 4 5 8 6 5 3 2 6 5 5 5 5 6 8 9 11 10 11 11 11 12 12 12 11 10 11 12 11 10 10 9 9 9 8 7 7 7 6 5
4 4 3 3 1 3 4 5 5 5 5 5 3 7 5 7 6 8 10 10 11 12 13 13 12 12 11 10 10 10 11 11 10 11 11 10 10 9 8 8 9 8 7 7
4 5 1 4 2 1 3 6 7 4 3 4 4 7 5 4 5 6 7 8 9 11 11 11 11 10 10 11 11 12 12 12 13 12 11 11 10 9 10 10 9 8 8 8
7 6 3 6 6 2 2 4 5 6 5 5 4 7 3 5 4 3 5 6 7 8 9 9 9 10 11 12 12 13 13 14 12 11 11 11 10 11 12 11 10 9 9 9
7 5 6 7 7 4 3 3 6 6 5 5 7 8 7 9 8 6 4 4 4 5 6 7 8 9 10 10 11 11 12 11 10 11 12 12 13 13 12 11 10 10 10 10
6 4 6 6 5 3 4 4 5 7 8 8 7 5 5 6 6 6 4 3 1 1 2 5 7 7 7 7 8 9 10 9 10 10 12 13 12 10 10 10 10 10 10 11
4 5 3 2 2 3 3 3 3 4 4 5 3 3 1 3 3 6 8 7 6 5 4 3 2 3 4 6 7 7 7 7 8 10 11 10 8 9 10 10 10 10 10 10
4 6 4 3 2 2 4 5 5 4 4 6 6 4 2 4 9 9 9 10 10 9 7 5 3 2 2 2 3 5 5 5 7 8 7 6 7 8 9 8 8 10 10 10
7 6 4 2 2 6 8 2 4 4 2 2 3 3 4 6 6 7 8 9 11 11 11 10 7 6 5 4 3 2 3 3 3 3 3 3 4 6 5 6 9 9 8 8
4 7 5 4 3 5 5 2 4 4 2 3 5 5 5 6 5 9 10 9 11 10 9 9 9 8 9 9 6 7 6 5 3 0 2 3 4 5 5 7 8 7 6 8
6 5 6 4 4 7 7 2 3 4 3 4 6 5 3 2 4 2 5 7 11 10 10 10 11 12 13 11 8 10 8 7 5 3 2 2 1 3 5 6 6 5 6 8
4 4 4 4 4 7 4 3 5 4 6 2 5 4 3 3 4 4 4 7 9 9 10 10 11 12 11 9 10 11 10 7 5 4 4 4 3 2 3 3 3 3 4 5
6 5 4 5 3 7 2 4 6 6 0 4 5 6 8 10 9 8 7 8 9 9 9 9 10 10 8 9 10 11 9 6 6 6 6 6 5 4 4 3 3 3 3 5
6 7 6 8 7 3 2 3 2 3 4 4 6 9 12 11 9 7 7 7 7 8 7 7 7 8 8 8 8 8 6 6 6 7 7 6 6 5 5 4 4 4 4 4
3 3 4 3 4 2 1 1 1 3 5 8 10 11 11 11 9 8 6 5 5 5 5 4 6 7 7 7 6 5 5 5 6 7 6 6 6 6 6 4 4 4 5 6
6 6 4 4 3 2 1 2 5 8 10 13 12 10 10 11 9 7 5 4 4 3 3 3 4 4 4 5 5 5 5 5 6 6 5 5 5 5 5 5 4 5 5 6
5 7 8 7 6 6 4 4 8 12 12 13 13 9 8 8 8 7 5 3 3 3 2 3 2 2 3 4 5 5 4 3 4 4 5 4 5 5 5 6 7 8 9 12
Wind_Direction
48 46 251 237 214 223 237 246 269 279 91 133 206 249 232 198 209 200 186 187 191 182 161 157 160 163 156 160 160 163 152 150 141 135 137 136 155 163 163 175 158 142 128 117
2 272 246 243 228 216 221 250 266 324 46 83 7 298 246 207 218 210 198 199 204 178 163 165 169 172 174 179 176 170 165 164 165 156 147 145 142 152 164 168 173 179 160 146
227 254 287 311 300 234 229 207 229 196 68 44 21 342 281 247 224 215 208 198 197 186 174 172 179 184 182 187 187 182 180 173 169 152 123 101 84 75 93 170 207 210 191 176
239 263 278 295 267 195 268 254 159 115 89 350 20 315 293 249 237 221 211 204 203 196 182 182 186 187 193 196 190 183 180 176 171 161 159 155 161 176 199 194 199 205 198 193
256 255 290 279 261 179 153 68 83 88 101 33 18 17 296 285 237 233 216 208 207 199 195 196 193 193 196 192 186 185 180 183 178 173 172 163 166 177 165 165 192 205 214 212
251 253 229 227 39 110 123 78 60 54 64 8 322 58 289 243 222 215 208 204 201 196 196 196 192 186 193 190 185 183 185 196 186 180 177 178 178 174 169 187 200 208 218 228
300 291 231 136 95 50 84 85 24 359 6 275 278 250 256 251 225 200 195 198 196 194 193 193 192 192 196 195 194 189 192 204 194 188 190 191 188 183 190 195 200 199 207 217
254 289 253 183 171 173 169 139 157 216 244 286 318 261 259 262 238 197 187 185 189 195 195 199 201 201 203 202 199 195 199 207 197 197 200 195 189 189 199 201 196 201 207 215
195 245 282 174 157 140 140 157 153 131 139 317 294 288 303 254 195 186 186 185 195 202 202 204 203 203 205 205 204 201 202 207 203 203 198 196 195 197 203 203 202 206 212 217
173 224 296 315 91 65 128 138 101 115 142 278 304 292 266 255 215 198 195 202 207 203 206 210 209 208 209 209 209 202 203 209 207 202 201 205 201 202 201 195 203 208 212 210
146 169 307 6 108 152 110 98 102 110 145 158 262 280 245 237 222 208 209 209 207 203 206 210 212 211 209 208 205 204 207 208 206 205 204 201 201 199 196 202 209 207 206 205
141 126 234 280 280 165 157 162 150 152 204 171 185 267 294 266 250 225 227 225 218 212 210 211 211 207 205 207 208 208 208 209 211 205 200 203 200 194 200 210 213 207 208 210
143 119 69 350 345 8 121 143 137 123 118 154 178 261 315 355 338 279 241 238 230 224 220 216 210 207 209 210 210 211 210 212 208 196 197 201 201 201 208 213 211 207 210 213
126 123 162 194 219 211 222 183 150 135 154 198 221 253 315 343 340 336 314 278 251 232 223 219 219 219 216 213 211 212 214 209 200 194 198 205 209 210 213 212 210 210 210 214
122 160 206 234 236 194 220 223 178 183 192 193 227 230 287 317 321 332 342 339 355 309 256 230 225 224 221 218 215 213 213 202 193 192 203 213 213 210 210 211 214 214 214 220
119 151 163 277 254 202 234 243 195 199 196 203 213 236 282 329 20 26 23 32 32 10 347 322 274 249 235 226 222 216 215 202 186 195 211 215 206 207 214 217 216 216 220 221
133 133 137 244 318 57 258 236 200 203 212 190 203 205 137 59 45 31 25 39 41 23 11 9 358 332 291 255 216 208 202 171 177 201 214 210 206 212 219 218 217 222 224 222
133 124 136 157 105 228 250 279 179 169 215 210 166 140 130 116 90 51 39 47 49 37 28 27 24 20 16 17 30 62 96 126 167 211 238 240 230 237 235 225 230 232 229 228
124 130 122 131 186 266 285 208 152 151 247 198 162 157 158 155 94 43 27 44 52 44 34 32 33 36 36 36 44 67 66 69 71 330 262 243 221 229 232 237 243 238 232 237
61 90 114 131 171 236 254 182 143 109 276 206 170 178 186 128 85 43 6 38 52 48 42 41 41 44 42 32 44 63 60 57 39 1 336 317 258 237 238 242 245 241 236 245
75 66 114 157 213 259 256 139 124 171 242 184 160 162 140 111 128 129 70 54 55 52 46 46 49 49 39 32 51 57 50 40 17 19 26 21 3 306 277 270 263 261 254 258
160 149 166 148 197 257 197 146 179 211 101 116 118 117 112 106 102 95 79 66 61 56 49 49 55 47 32 34 54 55 38 10 12 28 32 23 12 5 360 351 330 305 282 276
187 185 181 186 209 244 217 198 196 154 131 123 119 117 118 111 104 94 80 71 62 58 50 46 57 51 32 27 46 51 15 5 22 29 22 11 7 4 3 357 337 324 307 294
230 144 145 223 259 237 225 201 122 131 126 118 117 115 115 112 110 100 88 77 68 56 50 47 57 53 30 15 27 28 5 13 33 29 13 4 2 356 353 347 334 323 314 307
200 160 168 233 237 122 79 141 125 109 109 109 106 107 115 115 113 112 106 97 92 81 60 60 65 56 20 3 7 3 6 22 29 19 6 358 354 346 340 335 322 314 299 294
191 177 179 217 204 166 164 140 123 115 114 114 110 101 103 112 118 113 108 108 102 88 70 61 46 22 343 342 341 338 346 11 18 359 347 339 335 331 330 326 322 303 291 294
Height
1508 1512 1514 1509 1507 1506 1507 1510 1512 1509 1504 1507 1509 1509 1508 1507 1508 1508 1509 1510 1512 1515 1519 1522 1525 1529 1532 1535 1538 1540 1543 1545 1548 1550 1552 1553 1555 1555 1556 1556 1556 1556 1555 1555
1512 1512 1502 1499 1499 1502 1505 1510 1510 1508 1505 1507 1511 1510 1508 1507 1508 1508 1508 1510 1511 1514 1517 1521 1524 1528 1531 1534 1537 1540 1542 1545 1547 1550 1552 1553 1554 1555 1556 1556 1556 1556 1556 1555
1511 1503 1496 1497 1499 1502 1504 1508 1507 1509 1509 1510 1512 1514 1510 1507 1508 1508 1509 1509 1511 1512 1515 1518 1523 1526 1530 1533 1536 1539 1542 1545 1547 1549 1551 1552 1553 1554 1555 1555 1555 1556 1555 1555
1506 1498 1496 1497 1498 1499 1507 1500 1501 1507 1515 1523 1519 1528 1513 1509 1508 1507 1507 1508 1509 1511 1514 1517 1521 1525 1528 1532 1535 1538 1541 1544 1546 1548 1550 1551 1552 1553 1554 1554 1555 1555 1555 1555
1503 1496 1496 1498 1495 1495 1501 1501 1504 1510 1517 1524 1523 1527 1520 1510 1509 1506 1505 1506 1508 1510 1513 1515 1518 1523 1527 1531 1534 1537 1540 1543 1545 1547 1549 1550 1551 1552 1552 1553 1553 1553 1554 1554
1496 1492 1492 1492 1492 1494 1499 1505 1511 1519 1525 1533 1526 1529 1523 1512 1505 1502 1502 1504 1506 1509 1511 1514 1517 1522 1526 1530 1533 1536 1539 1541 1544 1546 1547 1549 1550 1551 1551 1551 1552 1552 1552 1552
1500 1493 1489 1489 1496 1498 1501 1515 1532 1533 1540 1536 1524 1526 1520 1500 1497 1497 1498 1501 1504 1507 1510 1514 1517 1520 1524 1527 1531 1534 1536 1539 1541 1544 1545 1547 1548 1549 1549 1550 1550 1550 1550 1550
1509 1507 1491 1488 1492 1499 1503 1510 1530 1538 1541 1535 1525 1525 1508 1494 1493 1494 1496 1499 1502 1505 1509 1512 1515 1518 1521 1525 1528 1531 1533 1536 1539 1541 1543 1545 1546 1547 1547 1548 1548 1548 1548 1548
1507 1504 1487 1485 1485 1491 1503 1509 1511 1527 1532 1536 1528 1517 1501 1491 1492 1493 1495 1498 1500 1503 1506 1509 1512 1516 1519 1522 1525 1528 1531 1533 1536 1538 1541 1542 1543 1544 1545 1546 1546 1546 1546 1546
1494 1500 1490 1486 1486 1489 1494 1505 1518 1528 1537 1538 1527 1520 1513 1496 1493 1492 1493 1495 1496 1500 1503 1506 1509 1512 1516 1519 1523 1526 1528 1531 1533 1536 1538 1539 1541 1542 1543 1543 1543 1543 1544 1544
1489 1499 1496 1491 1492 1495 1499 1506 1516 1528 1529 1538 1537 1524 1498 1493 1490 1490 1490 1491 1493 1496 1499 1503 1506 1509 1513 1516 1520 1522 1525 1527 1529 1532 1534 1536 1537 1539 1540 1540 1540 1541 1541 1541
1489 1499 1505 1497 1490 1489 1492 1498 1511 1520 1525 1531 1534 1523 1491 1489 1487 1487 1488 1489 1491 1493 1496 1500 1503 1506 1509 1512 1515 1518 1520 1523 1525 1527 1530 1531 1533 1535 1535 1536 1537 1538 1538 1538
1488 1499 1511 1509 1504 1494 1494 1497 1504 1513 1524 1533 1532 1516 1490 1488 1486 1486 1486 1487 1489 1491 1494 1496 1499 1502 1505 1508 1510 1513 1515 1518 1521 1523 1525 1527 1528 1530 1531 1532 1533 1534 1534 1535
1481 1495 1505 1511 1506 1496 1495 1495 1501 1509 1520 1524 1519 1506 1494 1490 1488 1486 1485 1485 1486 1488 1490 1493 1495 1497 1500 1503 1506 1508 1510 1513 1516 1518 1520 1522 1523 1525 1527 1528 1529 1530 1530 1531
1480 1492 1494 1493 1490 1491 1492 1492 1496 1501 1504 1509 1504 1502 1496 1493 1490 1487 1484 1483 1484 1485 1486 1488 1490 1493 1496 1498 1501 1503 1505 1508 1511 1513 1515 1516 1518 1520 1522 1523 1524 1525 1526 1526
1480 1488 1491 1491 1487 1489 1492 1490 1491 1494 1495 1498 1497 1498 1493 1492 1489 1487 1484 1482 1482 1483 1484 1486 1487 1490 1492 1494 1496 1498 1500 1503 1505 1508 1509 1511 1513 1515 1516 1517 1519 1519 1520 1521
1483 1488 1496 1500 1492 1490 1498 1490 1490 1491 1490 1492 1495 1494 1492 1492 1490 1488 1486 1484 1483 1484 1484 1485 1486 1487 1489 1491 1492 1494 1496 1498 1500 1502 1504 1506 1508 1509 1511 1512 1513 1513 1514 1515
1483 1490 1499 1502 1498 1507 1494 1485 1484 1488 1488 1488 1489 1490 1491 1492 1492 1491 1489 1487 1484 1485 1485 1485 1486 1487 1488 1489 1490 1491 1493 1494 1496 1498 1500 1501 1503 1504 1506 1507 1507 1507 1508 1508
1478 1488 1500 1506 1506 1500 1490 1484 1485 1488 1489 1487 1488 1489 1490 1491 1491 1493 1492 1490 1488 1488 1489 1488 1488 1488 1488 1488 1489 1490 1491 1492 1493 1495 1496 1496 1497 1498 1499 1500 1500 1501 1501 1501
1482 1485 1497 1504 1504 1506 1489 1481 1482 1486 1491 1484 1486 1488 1489 1488 1493 1498 1495 1493 1491 1492 1492 1491 1491 1490 1489 1489 1490 1490 1490 1490 1491 1492 1492 1492 1493 1493 1492 1493 1493 1493 1493 1493
1488 1492 1497 1501 1502 1494 1482 1480 1483 1495 1490 1482 1483 1486 1487 1489 1493 1497 1496 1495 1495 1495 1495 1495 1495 1493 1493 1492 1492 1490 1490 1489 1490 1489 1489 1489 1488 1488 1487 1487 1486 1486 1485 1485
1487 1493 1497 1502 1502 1496 1480 1480 1483 1484 1480 1481 1483 1485 1487 1490 1493 1496 1497 1498 1498 1498 1498 1498 1497 1497 1496 1495 1493 1492 1491 1490 1489 1488 1487 1486 1485 1484 1483 1481 1481 1480 1479 1477
1483 1483 1486 1489 1488 1480 1477 1478 1479 1479 1480 1481 1483 1486 1488 1491 1495 1498 1499 1500 1501 1501 1501 1501 1500 1499 1498 1496 1495 1493 1493 1491 1489 1487 1485 1484 1483 1481 1479 1478 1477 1475 1474 1472
1478 1477 1480 1482 1478 1476 1476 1477 1477 1479 1480 1482 1485 1488 1491 1494 1497 1500 1501 1502 1503 1503 1503 1502 1501 1500 1498 1497 1496 1494 1493 1491 1489 1487 1485 1483 1481 1479 1477 1475 1474 1472 1469 1466
1472 1476 1478 1478 1476 1475 1476 1476 1477 1479 1482 1484 1488 1491 1494 1497 1499 1501 1503 1504 1504 1504 1504 1503 1501 1500 1499 1498 1496 1494 1493 1491 1488 1486 1484 1482 1479 1477 1474 1472 1470 1468 1465 1463
1470 1471 1474 1474 1470 1472 1475 1477 1479 1480 1484 1487 1490 1495 1498 1500 1501 1503 1504 1504 1504 1504 1503 1502 1501 1500 1499 1497 1496 1494 1492 1490 1488 1485 1483 1480 1477 1474 1471 1468 1466 1463 1461 1457